Regional Weather Roundup
Issued by NWS Sterling, VA

Home | Current Version | Previous Version | Graphics & Text | Print | Product List | Glossary On
Versions: 1 2 3 4 5 6 7 8 9 10 11 12 13 14 15 16 17 18 19 20 21 22 23 24 25 26 27 28 29 30 31 32 33 34 35 36 37 38 39 40 41 42 43 44 45 46 47 48 49 50
854
ASUS41 KLWX 281310
RWRLWX

REGIONAL WEATHER ROUNDUP
NATIONAL WEATHER SERVICE BALTIMORE MD/WASHINGTON DC
900 AM EDT SUN AUG 28 2016

Note: "FAIR" indicates few or no clouds below 12,000 feet
with no significant weather and/or obstructions to visibility.
 TC=TEMPERATURE CELSIUS

 * =Non NWS site. Station does not report precipitation (e.g. rain,
    snow, etc.), thunder, or fog.

DCZ001-MDZ009-015-VAZ040>042-051-053>054-281400-
WASHINGTON METRO

CITY           SKY/WX    TMP DP  RH WIND       PRES   REMARKS
WASHINGTON NAT MOSUNNY   77  72  84 E7        30.26R
DULLES         MOSUNNY   76  70  82 E3        30.25S
ANDREWS AFB    PTSUNNY   75  72  92 NE5       30.25S
FT BELVOIR     MOSUNNY   78  71  81 VRB3      30.24S
COLLEGE PARK*  CLOUDY    73  70  88 CALM      30.25S
LEESBURG*      CLOUDY    73  72  94 N3        30.27S
MANASSAS*      SUNNY     75  72  88 NE3       30.25S
GAITHERSBURG*  MOSUNNY   73  70  88 E3        30.30S

$$

MDZ006>007-011-014-281400-
BALTIMORE METRO

CITY           SKY/WX    TMP DP  RH WIND       PRES   REMARKS
BWI AIRPORT    MOSUNNY   77  71  82 NE5       30.25S
MD SCIENCE CTR   N/A     78  70  76 MISG      30.26S
MARTIN STATE   MOSUNNY   77  73  88 CALM      30.28R
ANNAPOLIS      MOSUNNY   78  72  81 NE3       30.25R
FORT MEADE*    MOSUNNY  N/A N/A N/A E6        30.28R

$$

MDZ012-015-019>023-281400-
MARYLAND EASTERN SHORE

CITY           SKY/WX    TMP DP  RH WIND       PRES   REMARKS
OCEAN CITY     SUNNY     80  69  69 E8        30.23R
SALISBURY      SUNNY     77  71  82 NE6       30.23R
BAY BRIDGE AP* PTSUNNY   75  72  88 NE5       30.25R
CAMBRIDGE*     SUNNY     73  70  88 N3        30.24R

$$

MDZ017>025-281400-
SOUTHERN MARYLAND

CITY           SKY/WX    TMP DP  RH WIND       PRES   REMARKS
PATUXENT RIVER PTSUNNY   76  71  85 NE8       30.24R
ST INIGOES     MOSUNNY   77  73  87 NE7       30.23R
LEONARDTOWN*   MOSUNNY   73  70  88 CALM      30.26R

$$

MDZ003>005-281400-
NORTH CENTRAL MARYLAND

CITY           SKY/WX    TMP DP  RH WIND       PRES   REMARKS
FREDERICK*     NOT AVBL
HAGERSTOWN APT SUNNY     76  66  71 S5        30.26S

$$

MDZ501>502-281400-
WESTERN MARYLAND

CITY           SKY/WX    TMP DP  RH WIND       PRES   REMARKS
OAKLAND*       SUNNY     70  66  88 SE5       30.35R
CUMBERLAND*    SUNNY     73  68  83 CALM      30.29S

$$

VAZ025>031-281400-
SHENANDOAH VALLEY

CITY           SKY/WX    TMP DP  RH WIND       PRES   REMARKS
WINCHESTER*    SUNNY     75  68  78 CALM      30.26R
FRONT ROYAL*   FAIR      73  70  88 CALM      30.25S
LURAY*         FAIR      72  72 100 CALM      30.27R
NEW MARKET*    FAIR     N/A N/A N/A CALM      30.27R
STAUNTON*      MOSUNNY   73  67  83 CALM      30.30S
WAYNESBORO*    FAIR      73  66  77 CALM      30.29S

$$

WVZ021-048>050-054>055-281400-
EASTERN WEST VIRGINIA PANHANDLE

CITY           SKY/WX    TMP DP  RH WIND       PRES   REMARKS
MARTINSBURG    SUNNY     75  68  78 CALM      30.26R
PETERSBURG*    CLOUDY    74  70  89 CALM      30.26S

$$

VAZ036>039-050-281400-
CENTRAL FOOTHILLS

CITY           SKY/WX    TMP DP  RH WIND       PRES   REMARKS
CHARLOTTESVILL SUNNY     76  68  76 CALM      30.26R
CULPEPER*      SUNNY     75  71  88 CALM      30.26S
ORANGE*          N/A     73  73 100 CALM      30.27R
GORDONSVILLE*  NOT AVBL
WARRENTON*     FAIR      75  66  73 NE3       30.25S

$$

VAZ055>057-281400-
NORTH AND CENTRAL PIEDMONT

CITY           SKY/WX    TMP DP  RH WIND       PRES   REMARKS
FREDERICKSBRG* SUNNY     76  76 100 CALM      30.23S
STAFFORD*      SUNNY     76  72  86 NE6       30.28S

$$

NCZ024-NYZ072-PAZ021-071-VAZ022-071-281400-
OTHER REGIONAL OBSERVATIONS

CITY           SKY/WX    TMP DP  RH WIND       PRES   REMARKS
NEW YORK CITY  MOSUNNY   77  67  71 VRB3      30.30R
PHILADELPHIA   MOSUNNY   78  69  73 CALM      30.27R
PITTSBURGH     PTSUNNY   76  68  76 CALM      30.23R
ROANOKE        PTSUNNY   76  66  71 N3        30.30R
RICHMOND       FOG       72  71  97 N8        30.23S VSB 1/4
RALEIGH        PTSUNNY   74  71  91 NE7       30.21R

$$

ANZ530>537-281400-
MARINE OBSERVATIONS

STATION/POSITION TIME  TEMP    WIND        PRES
                       AIR SEA DIR/SP/G
                 (UTC) (F)     (DEG/KT/KT) (MB)
THOMAS PT LIGHT  1300   76 82   60/  4/  6 1025.8R
BALT KEY BRIDGE  1236   76      50/  4/  5 1024.5R
COVE POINT       1236   75      70/  8/ 10 1024.5R
LEWISETTA        1236   79 83   60/  4/  6 1023.2R
SOLOMONS ISLAND  1236   78 84   40/  5/  8   N/A
PINEY POINT      1248           60/  4/  5   N/A

$$





USA.gov is the U.S. government's official web portal to all federal, state and local government web resources and services.